Regional Weather Roundup
Issued by NWS

Home | Current Version | Previous Version | Text Only | Print | Product List | Glossary On
Versions: 1 2 3 4 5 6 7 8 9 10 11 12 13 14 15 16 17 18 19 20 21 22 23 24 25 26 27 28 29 30 31 32 33 34 35 36 37 38 39 40 41 42 43 44 45 46 47 48 49 50
000
ASUS45 KBOU 251607
RWRCO

WEATHER ROUNDUP FOR COLORADO
NATIONAL WEATHER SERVICE DENVER/BOULDER CO
1000 AM MDT FRI JUL 25 2014

NOTE: "FAIR" INDICATES FEW OR NO CLOUDS BELOW 12000 FEET WITH NO
SIGNIFICANT WEATHER AND/OR OBSTRUCTIONS TO VISIBILITY.

COZ001>005-013-030-031-251700-
...NORTHWEST COLORADO...

CITY           SKY/WX    TMP DP  RH WIND       PRES   REMARKS
CRAIG          MOSUNNY   69  55  60 NE8       30.21F
HAYDEN         MOSUNNY   73  48  40 E10       30.24F
MEEKER         SUNNY     76  52  43 VRB3      30.23F
MOUNT WERNER   NOT AVBL
STEAMBOAT SPGS MOSUNNY   67  52  58 CALM      30.28S
WALDEN         PTSUNNY   70  45  40 S10G17    30.35F
$$

COZ006>008-011-251700-
...WEST CENTRAL VALLEYS...

CITY           SKY/WX    TMP DP  RH WIND       PRES   REMARKS
GRAND JUNCTION MOSUNNY   78  51  38 SE17G26   30.15R
MONTROSE       LGT RAIN  70  56  61 NW3       30.27S
EAGLE          MOSUNNY   64  54  68 CALM      30.34F
RIFLE          SUNNY     75  51  43 VRB3      30.20F
DELTA          LGT RAIN  73  53  48 CALM      30.23S
NUCLA          PTSUNNY   77  48  36 CALM      30.30S
$$

COZ017>023-064>068-251700-
...SOUTHWEST COLORADO...

CITY           SKY/WX    TMP DP  RH WIND       PRES   REMARKS
DURANGO        MOSUNNY   77  47  34 NW3       30.32S
CORTEZ         MOSUNNY   80  53  39 CALM      30.25F
PAGOSA SPRINGS MOSUNNY   73  43  34 S5        30.40S
TELLURIDE      CLOUDY    63  54  72 CALM      30.50S
WOLF CREEK PAS NOT AVBL
$$

COZ009-010-012-014-032>034-037-058>063-251700-
...CENTRAL COLORADO...

CITY           SKY/WX    TMP DP  RH WIND       PRES   REMARKS
ASPEN          MOSUNNY   68  50  52 N3        30.36F
BUENA VISTA    SUNNY     71  44  37 SE3       30.37S
COPPER MTN     PTSUNNY   61  43  51 W8        30.70R
BERTHOUD PASS  FAIR      52  37  58 NW12      30.74S
COTTONWOOD PAS PTSUNNY   73  37  27 SW3       30.53R
GUNNISON       SUNNY     64  46  52 CALM      30.43F
KREMMLING      MOSUNNY   64  46  52 CALM      30.36F
LEADVILLE      MOSUNNY   66  41  40 W12G20    30.51S
MONARCH PASS   SUNNY     54  41  62 W14       30.80R
SALIDA         SUNNY    N/A N/A N/A CALM      30.41F
SUNLIGHT       MOSUNNY   63  50  63 CALM      30.61S
WILKERSON PASS SUNNY     63  37  39 W5        30.66R
$$

COZ069>075-251700-
...SAN LUIS VALLEY/SANGRE DE CRISTO MOUNTAINS...

CITY           SKY/WX    TMP DP  RH WIND       PRES   REMARKS
ALAMOSA        SUNNY     71  51  49 VRB5      30.36F
LA VETA PASS   MOSUNNY   64  43  45 SW12G22   30.54S
SAGUACHE       SUNNY     70  50  49 CALM      30.40S
$$

COZ035-036-038>040-251700-
...NORTHERN COLORADO FRONT RANGE...

CITY           SKY/WX    TMP DP  RH WIND       PRES   REMARKS
DENVER INTL AP PTSUNNY   87  46  24 SE6       30.11F
DMNS CITY PARK   N/A     87  48  25 SE3G9     30.10F
AURORA         MOSUNNY   85  45  25 VRB3      30.14F
FRONT RANGE AP PTSUNNY   86  46  25 NE6       30.12F
ERIE MUNI ARPT SUNNY     87  48  25 SE9       30.08S
BOULDER MUN AP SUNNY     84  54  34 MISG        N/A
CENTENNIAL     MOSUNNY   85  45  24 E7        30.15F
BROOMFIELD     MOSUNNY   86  46  25 E10       30.13S
FORT COLLINS   SUNNY     81  54  39 SE8       30.08S
LONGMONT       SUNNY     86  55  35 CALM      30.09S
$$

COZ041-046-047-076>085-087-088-251700-
...PIKES PEAK/PALMER DIVIDE AND SOUTHERN FOOTHILLS...

CITY           SKY/WX    TMP DP  RH WIND       PRES   REMARKS
COLO. SPRINGS  MOSUNNY   87  46  24 N10       30.19R
A. F. ACADEMY  SUNNY     83  46  27 N5        30.21S
ELLICOTT       NOT AVBL
FALCON         SUNNY     82  45  26 NE12      30.26R
FORT CARSON    MOSUNNY   87  47  24 N13       30.16R
LIMON          SUNNY     87  46  24 N15       30.11S
MONUMENT HILL  SUNNY     79  41  25 NE7       30.26R
TRINIDAD       SUNNY     86  46  24 W3        30.15S
$$

COZ042>045-048>051-090-091-251700-
...NORTHEAST COLORADO...

CITY           SKY/WX    TMP DP  RH WIND       PRES   REMARKS
GREELEY ARPT   MOSUNNY   79  55  44 CALM      30.07R
AKRON          MOSUNNY   82  53  36 N15       30.05S
BURLINGTON     MOSUNNY   89  50  26 N12G21    30.01R
WRAY             N/A     83  58  41 N16       29.99R
STERLING       MOSUNNY   81  63  54 NE10      30.02R
HOLYOKE        MOSUNNY   81  61  50 N18G28    30.00R
FORT MORGAN    MOSUNNY   84  49  30 NE10      30.06S
$$

COZ086-089-092>099-251700-
...SOUTHEAST COLORADO...

CITY           SKY/WX    TMP DP  RH WIND       PRES   REMARKS
PUEBLO         SUNNY     91  48  22 W3        30.05S
LA JUNTA       SUNNY     88  57  34 W9        30.01S
LAMAR          SUNNY     90  53  28 NW9       29.95F
SPRINGFIELD      N/A     92  51  24 VRB6      30.02S
$$


USA.gov is the U.S. government's official web portal to all federal, state and local government web resources and services.